• In Hungary
  • List of Countries
  • For 7 days
  • Water Temperature
  • Satellite Maps
  • Weather Map
  • News
  • Weather Widgets
  • user-avatar
    Login

    Hourly Weather Krasnaya Raevka

    Today, 22 August, Wednesday

    Time Temperature Precipitation Wind Pressure Humidity
    00:00 +12°C° 0 mm 3 mps 744 mmHg 84%
    01:00 +11°C° 0 mm 3 mps 744 mmHg 86%
    02:00 +11°C° 0 mm 3 mps 745 mmHg 87%
    03:00 +10°C° 0 mm 3 mps 745 mmHg 88%
    04:00 +10°C° 0 mm 3 mps 746 mmHg 90%
    05:00 +9°C° 0 mm 3 mps 746 mmHg 91%
    06:00 +10°C° 0 mm 3 mps 746 mmHg 86%
    07:00 +12°C° 0 mm 4 mps 747 mmHg 81%
    08:00 +13°C° 0 mm 4 mps 747 mmHg 76%
    09:00 +14°C° 0 mm 4 mps 747 mmHg 71%
    10:00 +15°C° 0 mm 4 mps 748 mmHg 65%
    11:00 +16°C° 0 mm 5 mps 748 mmHg 60%
    12:00 +17°C° 0 mm 5 mps 748 mmHg 59%
    13:00 +18°C° 0 mm 4 mps 748 mmHg 58%
    14:00 +18°C° 0 mm 4 mps 748 mmHg 56%
    15:00 +18°C° 0 mm 4 mps 748 mmHg 59%
    16:00 +18°C° 0 mm 3 mps 749 mmHg 62%
    17:00 +18°C° 0 mm 3 mps 749 mmHg 64%
    18:00 +16°C° 0 mm 3 mps 749 mmHg 68%
    19:00 +14°C° 0 mm 2 mps 749 mmHg 72%
    20:00 +13°C° 0 mm 2 mps 749 mmHg 76%
    21:00 +12°C° 0 mm 1 mps 750 mmHg 78%
    22:00 +11°C° 0 mm 1 mps 750 mmHg 79%
    23:00 +11°C° 0 mm 1 mps 750 mmHg 80%

    Tomorrow, 23 August, Thursday

    Time Temperature Precipitation Wind Pressure Humidity
    00:00 +10°C° 0 mm 1 mps 750 mmHg 81%
    01:00 +9°C° 0 mm 0 mps 750 mmHg 82%
    02:00 +8°C° 0 mm 0 mps 750 mmHg 83%
    03:00 +8°C° 0 mm 0 mps 750 mmHg 83%
    04:00 +8°C° 0 mm 0 mps 751 mmHg 83%
    05:00 +9°C° 0 mm 1 mps 751 mmHg 83%
    06:00 +11°C° 0 mm 1 mps 751 mmHg 78%
    07:00 +13°C° 0 mm 1 mps 751 mmHg 73%
    08:00 +15°C° 0 mm 1 mps 751 mmHg 68%
    09:00 +16°C° 0 mm 1 mps 751 mmHg 64%
    10:00 +17°C° 0 mm 2 mps 751 mmHg 59%
    11:00 +19°C° 0 mm 2 mps 750 mmHg 55%
    12:00 +19°C° 0 mm 2 mps 750 mmHg 54%
    13:00 +20°C° 0 mm 2 mps 750 mmHg 52%
    14:00 +20°C° 0 mm 2 mps 749 mmHg 51%
    15:00 +20°C° 0 mm 2 mps 749 mmHg 55%
    16:00 +20°C° 0 mm 2 mps 749 mmHg 58%
    17:00 +21°C° 0 mm 1 mps 748 mmHg 62%
    18:00 +19°C° 0 mm 1 mps 748 mmHg 66%
    19:00 +16°C° 0 mm 1 mps 748 mmHg 69%
    20:00 +14°C° 0 mm 2 mps 748 mmHg 73%
    21:00 +13°C° 0 mm 2 mps 748 mmHg 74%
    22:00 +13°C° 0 mm 2 mps 749 mmHg 76%
    23:00 +12°C° 0 mm 2 mps 749 mmHg 77%

    Day after tomorrow, 24 August, Friday

    Time Temperature Precipitation Wind Pressure Humidity
    00:00 +12°C° 0 mm 2 mps 749 mmHg 78%
    01:00 +12°C° 0 mm 2 mps 748 mmHg 79%
    02:00 +10°C° 0 mm 2 mps 748 mmHg 80%
    03:00 +10°C° 0 mm 2 mps 748 mmHg 81%
    04:00 +10°C° 0 mm 2 mps 748 mmHg 82%
    05:00 +9°C° 0 mm 2 mps 748 mmHg 83%
    06:00 +12°C° 0 mm 2 mps 748 mmHg 79%
    07:00 +13°C° 0 mm 3 mps 748 mmHg 75%
    08:00 +16°C° 0 mm 3 mps 748 mmHg 71%
    09:00 +17°C° 0 mm 3 mps 747 mmHg 67%
    10:00 +19°C° 0 mm 3 mps 747 mmHg 62%
    11:00 +21°C° 0 mm 3 mps 747 mmHg 58%
    12:00 +21°C° 0 mm 4 mps 747 mmHg 56%
    13:00 +22°C° 0 mm 4 mps 747 mmHg 54%
    14:00 +23°C° 0 mm 4 mps 746 mmHg 53%
    15:00 +22°C° 0 mm 3 mps 746 mmHg 57%
    16:00 +22°C° 0 mm 3 mps 746 mmHg 61%
    17:00 +23°C° 0 mm 2 mps 745 mmHg 66%
    18:00 +20°C° 0 mm 3 mps 745 mmHg 70%
    19:00 +18°C° 0 mm 3 mps 745 mmHg 74%
    20:00 +16°C° 0 mm 3 mps 745 mmHg 78%
    21:00 +16°C° 0 mm 3 mps 745 mmHg 78%
    22:00 +14°C° 0 mm 3 mps 745 mmHg 78%
    23:00 +14°C° 0 mm 4 mps 745 mmHg 77%

    25 August, Saturday

    Time Temperature Precipitation Wind Pressure Humidity
    00:00 +13°C° 0 mm 4 mps 745 mmHg 78%
    01:00 +13°C° 0 mm 3 mps 744 mmHg 78%
    02:00 +12°C° 0 mm 3 mps 744 mmHg 78%
    03:00 +12°C° 0 mm 3 mps 744 mmHg 79%
    04:00 +11°C° 0 mm 3 mps 744 mmHg 80%
    05:00 +11°C° 0 mm 3 mps 744 mmHg 81%
    06:00 +13°C° 0 mm 4 mps 744 mmHg 77%
    07:00 +14°C° 0 mm 4 mps 744 mmHg 73%
    08:00 +16°C° 0 mm 5 mps 744 mmHg 69%
    09:00 +19°C° 0 mm 5 mps 744 mmHg 65%
    10:00 +21°C° 0 mm 5 mps 744 mmHg 61%
    11:00 +22°C° 0 mm 5 mps 744 mmHg 58%
    12:00 +23°C° 0 mm 5 mps 743 mmHg 55%
    13:00 +24°C° 0 mm 6 mps 743 mmHg 53%
    14:00 +26°C° 0 mm 6 mps 743 mmHg 50%
    15:00 +25°C° 0 mm 5 mps 743 mmHg 55%
    16:00 +25°C° 0 mm 4 mps 742 mmHg 59%
    17:00 +23°C° 0 mm 4 mps 742 mmHg 63%
    18:00 +22°C° 0 mm 4 mps 742 mmHg 64%
    19:00 +20°C° 0 mm 4 mps 742 mmHg 66%
    20:00 +18°C° 0 mm 4 mps 743 mmHg 68%
    21:00 +18°C° 0 mm 4 mps 743 mmHg 67%
    22:00 +17°C° 0 mm 4 mps 743 mmHg 67%
    23:00 +17°C° 0 mm 4 mps 743 mmHg 66%

    26 August, Sunday

    Time Temperature Precipitation Wind Pressure Humidity
    00:00 +15°C° 0 mm 4 mps 743 mmHg 67%
    01:00 +15°C° 0 mm 4 mps 743 mmHg 68%
    02:00 +14°C° 0 mm 4 mps 743 mmHg 69%
    03:00 +14°C° 0 mm 4 mps 743 mmHg 70%
    04:00 +14°C° 0 mm 4 mps 743 mmHg 71%
    05:00 +13°C° 0 mm 4 mps 743 mmHg 71%
    06:00 +15°C° 0 mm 4 mps 743 mmHg 70%
    07:00 +17°C° 0 mm 4 mps 743 mmHg 68%
    08:00 +17°C° 0 mm 5 mps 743 mmHg 67%
    09:00 +20°C° 0 mm 5 mps 743 mmHg 63%
    10:00 +22°C° 0 mm 5 mps 743 mmHg 60%
    11:00 +23°C° 0 mm 5 mps 743 mmHg 57%
    12:00 +25°C° 0 mm 5 mps 743 mmHg 54%
    13:00 +26°C° 0 mm 5 mps 742 mmHg 52%
    14:00 +27°C° 0 mm 5 mps 742 mmHg 50%
    15:00 +26°C° 0 mm 5 mps 742 mmHg 53%
    16:00 +26°C° 0 mm 4 mps 742 mmHg 57%
    17:00 +25°C° 0 mm 4 mps 742 mmHg 61%
    18:00 +22°C° 0 mm 4 mps 742 mmHg 63%
    19:00 +20°C° 0 mm 4 mps 742 mmHg 64%
    20:00 +19°C° 0 mm 4 mps 742 mmHg 66%
    21:00 +18°C° 0 mm 4 mps 741 mmHg 66%
    22:00 +17°C° 0 mm 4 mps 741 mmHg 66%
    23:00 +17°C° 0 mm 4 mps 741 mmHg 66%

    27 August, Monday

    Time Temperature Precipitation Wind Pressure Humidity
    00:00 +17°C° 0 mm 4 mps 741 mmHg 68%
    01:00 +16°C° 0 mm 3 mps 741 mmHg 70%
    02:00 +16°C° 0 mm 3 mps 741 mmHg 72%
    03:00 +14°C° 0 mm 3 mps 741 mmHg 73%
    04:00 +14°C° 0 mm 3 mps 741 mmHg 75%
    05:00 +14°C° 0 mm 3 mps 741 mmHg 76%
    06:00 +16°C° 0 mm 3 mps 741 mmHg 74%
    07:00 +18°C° 0 mm 4 mps 741 mmHg 72%
    08:00 +19°C° 0 mm 4 mps 741 mmHg 70%
    09:00 +20°C° 0 mm 4 mps 741 mmHg 69%
    10:00 +21°C° 0 mm 3 mps 741 mmHg 67%
    11:00 +22°C° 0 mm 3 mps 742 mmHg 66%
    12:00 +24°C° 0 mm 3 mps 742 mmHg 64%
    13:00 +25°C° 0 mm 3 mps 742 mmHg 61%
    14:00 +26°C° 0 mm 3 mps 742 mmHg 59%
    15:00 +26°C° 0 mm 2 mps 742 mmHg 62%
    16:00 +25°C° 0 mm 2 mps 742 mmHg 66%
    17:00 +25°C° 0 mm 2 mps 742 mmHg 69%
    18:00 +23°C° 0.6 mm 2 mps 742 mmHg 75%
    19:00 +20°C° 0.6 mm 3 mps 743 mmHg 82%
    20:00 +18°C° 0.6 mm 3 mps 743 mmHg 88%
    21:00 +17°C° 0.5 mm 4 mps 743 mmHg 90%
    22:00 +15°C° 0.5 mm 4 mps 743 mmHg 92%
    23:00 +15°C° 0.5 mm 4 mps 744 mmHg 93%
    Show more